Regional Weather Roundup
Issued by NWS Charleston, SC

Current Version | Previous Version | Graphics & Text | Print | Product List | Glossary On
Versions: 1 2 3 4 5 6 7 8 9 10 11 12 13 14 15 16 17 18 19 20 21 22 23 24 25 26 27 28 29 30 31 32 33 34 35 36 37 38 39 40 41 42 43 44 45 46 47 48 49 50
000
ASUS42 KCHS 192127
RWRCHS

Regional Weather Roundup
National Weather Service Charleston SC
400 PM EST FRI JAN 19 2018

NOTE: "fair" indicates few or no clouds below 12,000 feet with no
significant weather and/or obstructions to visibility.

Not all stations are quality controlled. Use data with caution,
especially dewpoint observations.

SCZ027-030-031-034>040-042>050-192200-
...Southeast South Carolina...

CITY           SKY/WX    TMP DP  RH WIND       PRES   REMARKS
N Charleston   FAIR      62  17  17 W5        30.20F
Waterfront Prk NOT AVBL
Mount Pleasant FAIR      61  23  23 SW6       30.20S
Johns Island   FAIR      55  30  38 S10       30.22R
Pinopolis        N/A     57  23  26 SW6       30.10F
Moncks Corner  FAIR      59  12  15 SW7       30.19S
Summerville    FAIR      61  14  16 SW6       30.21R
Beaufort MCAS  FAIR      61  14  16 W6        30.22F
Beaufort Arpt  FAIR      55  27  33 S7        30.22S
Hilton Head Is SUNNY     52  36  54 S6        30.24S
Walterboro     FAIR      61  10  13 SW8       30.21S
Allendale      FAIR      61   5  11 CALM      30.20S

...Southern Midlands and Pee Dee...

CITY           SKY/WX    TMP DP  RH WIND       PRES   REMARKS
Georgetown     FAIR      61  19  20 SW6       30.19F
Kingstree      FAIR      59   7  12 SW6       30.19S
Orangeburg     FAIR      60  13  15 SW8       30.19S
Barnwell         N/A     61  14  16 SW9       30.20S
Aiken          FAIR      59  10  14 SW8       30.22F
Manning        FAIR      61   9  12 MISG      30.18F
Columbia       FAIR      60  21  22 NW7       30.18F
Sumter         FAIR      60  16  18 SW6       30.16F
Florence       FAIR      59  16  18 W9        30.18R
Myrtle Beach   FAIR      52  33  48 S10       30.20S
N Myrtle Beach FAIR      50  36  58 SW12      30.19S

$$

GAZ063-065-086>088-099>101-113>116-118-119-134>141-150-192200-
...Southeast Georgia...

CITY           SKY/WX    TMP DP  RH WIND       PRES   REMARKS
Savannah Arpt  FAIR      61  11  14 W9        30.23F
Hunter AAF     FAIR      60  17  18 W6        30.21S
Fort Stewart   SUNNY     59  15  17 SW7       30.23S
Statesboro     FAIR      61  -9   6 W7        30.23R
Sylvania       FAIR      61  15  16 W5        30.22S
Claxton        FAIR      61   7  11 SW5       30.24R

...CSRA, Central and far Southeast Georgia...

CITY           SKY/WX    TMP DP  RH WIND       PRES   REMARKS
Thomson        FAIR      60   6  12 NW8       30.25S
Augusta-Bush   FAIR      62   3   9 W7        30.19F
Augusta-Daniel FAIR      61   7  11 VRB5      30.20S
Swainsboro     FAIR      59  14  17 W7        30.23S
Vidalia        FAIR      61  16  17 W3        30.24R
Eastman        FAIR     N/A N/A N/A CALM      30.27S
Hazlehurst     FAIR      61 -32   2 NW3       30.24S
Alma           FAIR      59   9  13 W5        30.25F
Waycross       FAIR      59   3  10 N3        30.25F
Jesup          FAIR      61  12  15 W3        30.25F
Baxley         FAIR      55   9  15 W5        30.25S
Brunswick      FAIR      59  19  21 W6        30.26S
Saint Simons   FAIR      53  31  42 S6        30.25F

$$

SCZ027-028-034-036>038-045-046-048>050-GAZ119-141-192200-
...Lake and Supplemental Coastal Observations...

STATION/POSITION TIME  TEMP    WIND        PRES    WAVE   SWELL
                       AIR SEA DIR/SP/G            HT/PER HT/PER/DIR
                 (UTC) (F)     (DEG/KT/KT) (MB)    (FT/S) (FT/S/D)
Winyah Bay       2030   56     190/  9     1022.0F
Lake Murray      2050   55     280/  4/  8 1021.7S
ACE Basin NERRS  2045   58     230/  3     1023.0S
Fort Pulaski     2100   54 45  180/  5/  8 1024.1
Sapelo Island    2100   57     170/  5     1024.0

$$

ANZ835-935-AMZ111-154-330-350-352-354-370-450-454-472-192200-
...C-MAN and Buoy Observations...

STATION/POSITION TIME  TEMP    WIND        PRES    WAVE   SWELL
                       AIR SEA DIR/SP/G            HT/PER HT/PER/DIR
                 (UTC) (F)     (DEG/KT/KT) (MB)    (FT/S) (FT/S/D)
Buoy 41004       2110   56 69  240/ 16/ 19 1023.4
Buoy 41008       2050   49 51  180/ 10/ 10 1024.6F   2/11   2/ 70/11
Folly Beach CMAN 2100   48     210/ 15/ 17 1023.8S
Capers Nearshore 2108   47 49  220/ 12/ 17 1022.7F
Fripp Nearshore  2108   45 45  210/ 12/ 16 1022.7F


STATION/POSITION TIME  TEMP    WIND        PRES    WAVE   SWELL
                       AIR SEA DIR/SP/G            HT/PER HT/PER/DIR
                 (UTC) (F)     (DEG/KT/KT) (MB)    (FT/S) (FT/S/D)
5E St. Marys GA  2100      50                N/A     2/11   2/100/11
Frying Pan Buoy  2110   55 62  250/ 16/ 19 1022.6
Buoy 41025       2110   56     250/ 17/ 23 1021.4
Cape Lookout NC  2100          220/ 10/ 13 1022.1F
Buoy 41002       2050   62 70  290/  8/ 12 1023.9R   8/11   7/ 30/11
Buoy 41010       NOT AVBL
St Augustine FL  2100   50 50  100/  5/  5 1025.3F


$$



USA.gov is the U.S. government's official web portal to all federal, state and local government web resources and services.